CEB821 RPLL-RPUV

Flight info

Callsign CEB821
Flight time 0h 37m
Altitude 27000
Route TIMON4V TIMON W15 RAGAY W15A NGA
Aircraft A20N/M-SDE2E3FGHIRWXY/LB1

Departure

Time 2026-05-06 04:09
Airport Ninoy Aquino International Airport (RPLL)

Arrival

Time 2026-05-06 04:46
Airport Virac Airport (RPUV)
Time Latitude Longitude Altitude Speed Heading
2026-05-06 03:49 14.52243 121.00951 82 ft 0 kts 44°
2026-05-06 04:00 14.52235 121.00943 82 ft 2 kts 44°
2026-05-06 04:01 14.52224 121.00932 82 ft 2 kts 45°
2026-05-06 04:01 14.52213 121.00921 82 ft 2 kts 44°
2026-05-06 04:01 14.52202 121.00910 82 ft 2 kts 45°
2026-05-06 04:01 14.52192 121.00899 82 ft 2 kts 44°
2026-05-06 04:02 14.52181 121.00889 82 ft 2 kts 44°
2026-05-06 04:02 14.52174 121.00882 82 ft 2 kts 38°
2026-05-06 04:02 14.52160 121.00876 82 ft 2 kts
2026-05-06 04:02 14.52146 121.00878 82 ft 2 kts 335°
2026-05-06 04:03 14.52138 121.00884 82 ft 0 kts 317°
2026-05-06 04:03 14.52133 121.00889 82 ft 0 kts 314°
2026-05-06 04:05 14.52137 121.00884 82 ft 1 kts 314°
2026-05-06 04:05 14.52151 121.00870 82 ft 3 kts 314°
2026-05-06 04:06 14.52173 121.00848 82 ft 5 kts 316°
2026-05-06 04:06 14.52203 121.00816 82 ft 6 kts 315°
2026-05-06 04:06 14.52240 121.00778 82 ft 8 kts 315°
2026-05-06 04:06 14.52284 121.00732 82 ft 9 kts 314°
2026-05-06 04:07 14.52334 121.00680 82 ft 10 kts 315°
2026-05-06 04:07 14.52391 121.00623 82 ft 12 kts 315°
2026-05-06 04:07 14.52449 121.00561 82 ft 10 kts 313°
2026-05-06 04:07 14.52485 121.00497 82 ft 11 kts 257°
2026-05-06 04:08 14.52434 121.00432 82 ft 12 kts 223°
2026-05-06 04:08 14.52390 121.00396 82 ft 6 kts 192°
2026-05-06 04:08 14.52350 121.00417 82 ft 6 kts 134°
2026-05-06 04:08 14.52345 121.00422 82 ft 2 kts 133°
2026-05-06 04:09 14.52139 121.00636 82 ft 87 kts 135°
2026-05-06 04:09 14.51520 121.01265 221 ft 145 kts 134°
2026-05-06 04:09 14.50829 121.01968 982 ft 142 kts 134°
2026-05-06 04:09 14.50161 121.02663 1786 ft 133 kts 131°
2026-05-06 04:10 14.49541 121.03310 2342 ft 128 kts 131°
2026-05-06 04:10 14.48923 121.03957 2806 ft 128 kts 130°
2026-05-06 04:10 14.48296 121.04611 3256 ft 131 kts 130°
2026-05-06 04:10 14.47623 121.05317 3595 ft 145 kts 131°
2026-05-06 04:11 14.46876 121.06097 3904 ft 164 kts 131°
2026-05-06 04:11 14.46027 121.06979 4314 ft 182 kts 132°
2026-05-06 04:11 14.45088 121.07951 4765 ft 199 kts 132°
2026-05-06 04:11 14.44064 121.09014 5149 ft 222 kts 130°
2026-05-06 04:12 14.43191 121.10379 5653 ft 239 kts 110°
2026-05-06 04:12 14.42765 121.12079 6204 ft 256 kts 100°
2026-05-06 04:12 14.42437 121.13944 6809 ft 271 kts 99°
2026-05-06 04:12 14.42106 121.15869 7620 ft 277 kts 99°
2026-05-06 04:13 14.41764 121.17812 8462 ft 281 kts 99°
2026-05-06 04:13 14.41409 121.19795 9277 ft 286 kts 100°
2026-05-06 04:13 14.41010 121.21802 10051 ft 291 kts 105°
2026-05-06 04:13 14.40255 121.23775 10644 ft 303 kts 117°
2026-05-06 04:14 14.39063 121.25638 11028 ft 321 kts 126°
2026-05-06 04:14 14.37651 121.27483 11376 ft 339 kts 128°
2026-05-06 04:14 14.36116 121.29443 11716 ft 357 kts 128°
2026-05-06 04:14 14.34534 121.31470 11994 ft 374 kts 128°
2026-05-06 04:15 14.32879 121.33600 12489 ft 382 kts 127°
2026-05-06 04:15 14.31226 121.35735 13118 ft 386 kts 127°
2026-05-06 04:15 14.29539 121.37920 13735 ft 389 kts 127°
2026-05-06 04:15 14.27851 121.40106 14358 ft 392 kts 127°
2026-05-06 04:16 14.26157 121.42304 14931 ft 396 kts 128°
2026-05-06 04:16 14.24433 121.44540 15509 ft 399 kts 128°
2026-05-06 04:16 14.22711 121.46774 16056 ft 402 kts 128°
2026-05-06 04:16 14.20944 121.49067 16577 ft 406 kts 128°
2026-05-06 04:17 14.19199 121.51331 17091 ft 409 kts 128°
2026-05-06 04:17 14.17421 121.53638 17600 ft 412 kts 128°
2026-05-06 04:17 14.15631 121.55958 18094 ft 415 kts 128°
2026-05-06 04:17 14.13832 121.58289 18571 ft 418 kts 128°
2026-05-06 04:18 14.12026 121.60637 19040 ft 420 kts 127°
2026-05-06 04:18 14.10471 121.63187 19477 ft 424 kts 116°
2026-05-06 04:18 14.09380 121.66007 19950 ft 427 kts 107°
2026-05-06 04:18 14.08763 121.69004 20417 ft 430 kts 99°
2026-05-06 04:19 14.08327 121.72047 20848 ft 433 kts 98°
2026-05-06 04:19 14.07913 121.75129 21280 ft 436 kts 98°
2026-05-06 04:19 14.07496 121.78205 21720 ft 440 kts 98°
2026-05-06 04:19 14.07062 121.81323 22136 ft 443 kts 98°
2026-05-06 04:20 14.06615 121.84481 22542 ft 446 kts 98°
2026-05-06 04:20 14.06154 121.87697 22961 ft 450 kts 98°
2026-05-06 04:20 14.05639 121.90873 23349 ft 453 kts 102°
2026-05-06 04:20 14.04824 121.94004 23735 ft 456 kts 108°
2026-05-06 04:21 14.03690 121.97031 24180 ft 457 kts 114°
2026-05-06 04:21 14.02289 121.99972 24762 ft 455 kts 117°
2026-05-06 04:21 14.00845 122.02854 25352 ft 453 kts 117°
2026-05-06 04:21 13.99393 122.05727 25825 ft 454 kts 117°
2026-05-06 04:22 13.97932 122.08624 26218 ft 457 kts 117°
2026-05-06 04:22 13.96482 122.11510 26608 ft 460 kts 117°
2026-05-06 04:22 13.95005 122.14461 26860 ft 462 kts 117°
2026-05-06 04:23 13.92611 122.19389 26870 ft 462 kts 112°
2026-05-06 04:23 13.91181 122.23537 26879 ft 462 kts 108°
2026-05-06 04:23 13.90215 122.26681 26881 ft 462 kts 107°
2026-05-06 04:23 13.89240 122.29836 26883 ft 462 kts 108°
2026-05-06 04:24 13.88258 122.32944 26883 ft 462 kts 108°
2026-05-06 04:24 13.87251 122.36073 26884 ft 462 kts 108°
2026-05-06 04:24 13.86230 122.39208 26885 ft 462 kts 108°
2026-05-06 04:24 13.85208 122.42325 26885 ft 462 kts 109°
2026-05-06 04:25 13.84180 122.45448 26884 ft 462 kts 109°
2026-05-06 04:25 13.83142 122.48593 26884 ft 462 kts 108°
2026-05-06 04:25 13.82119 122.51695 26886 ft 462 kts 109°
2026-05-06 04:25 13.81078 122.54845 26885 ft 463 kts 109°
2026-05-06 04:26 13.80037 122.58002 26886 ft 463 kts 109°
2026-05-06 04:26 13.79011 122.61116 26887 ft 463 kts 108°
2026-05-06 04:26 13.78001 122.64276 26888 ft 463 kts 108°
2026-05-06 04:26 13.77012 122.67423 26888 ft 463 kts 108°
2026-05-06 04:27 13.76028 122.70564 26480 ft 465 kts 108°
2026-05-06 04:27 13.75018 122.73781 25608 ft 466 kts 108°
2026-05-06 04:27 13.74016 122.76965 24716 ft 466 kts 108°
2026-05-06 04:27 13.73021 122.80125 23804 ft 466 kts 108°
2026-05-06 04:28 13.72025 122.83280 23053 ft 462 kts 108°
2026-05-06 04:28 13.71056 122.86352 22460 ft 455 kts 108°
2026-05-06 04:28 13.70088 122.89418 21861 ft 450 kts 108°
2026-05-06 04:28 13.69133 122.92447 21254 ft 445 kts 108°
2026-05-06 04:29 13.68176 122.95481 20636 ft 440 kts 108°
2026-05-06 04:29 13.67241 122.98441 20032 ft 435 kts 108°
2026-05-06 04:29 13.66321 123.01353 19425 ft 430 kts 108°
2026-05-06 04:29 13.65401 123.04258 18818 ft 425 kts 108°
2026-05-06 04:30 13.64497 123.07116 18230 ft 420 kts 108°
2026-05-06 04:30 13.63593 123.09972 17631 ft 415 kts 108°
2026-05-06 04:30 13.62711 123.12759 17054 ft 411 kts 108°
2026-05-06 04:30 13.61838 123.15517 16478 ft 407 kts 108°
2026-05-06 04:31 13.60960 123.18285 15890 ft 403 kts 108°
2026-05-06 04:31 13.60098 123.21004 15305 ft 399 kts 108°
2026-05-06 04:31 13.59240 123.23706 14720 ft 396 kts 107°
2026-05-06 04:31 13.58460 123.26408 14133 ft 392 kts 104°
2026-05-06 04:32 13.57854 123.29112 13540 ft 390 kts 101°
2026-05-06 04:32 13.57376 123.31861 12907 ft 387 kts 99°
2026-05-06 04:32 13.56932 123.34535 12334 ft 384 kts 99°
2026-05-06 04:32 13.56488 123.37235 11750 ft 381 kts 99°
2026-05-06 04:33 13.56048 123.39902 11349 ft 371 kts 99°
2026-05-06 04:33 13.55626 123.42453 11087 ft 359 kts 99°
2026-05-06 04:33 13.55211 123.44949 10850 ft 346 kts 99°
2026-05-06 04:33 13.54816 123.47324 10630 ft 334 kts 99°
2026-05-06 04:34 13.54429 123.49647 10416 ft 323 kts 99°
2026-05-06 04:34 13.54058 123.51873 10181 ft 313 kts 99°
2026-05-06 04:34 13.53696 123.54044 10033 ft 300 kts 99°
2026-05-06 04:34 13.53348 123.56123 9877 ft 289 kts 99°
2026-05-06 04:35 13.53013 123.58127 9504 ft 287 kts 99°
2026-05-06 04:35 13.52676 123.60144 9130 ft 285 kts 99°
2026-05-06 04:35 13.52339 123.62153 8767 ft 283 kts 99°
2026-05-06 04:35 13.52006 123.64147 8407 ft 281 kts 99°
2026-05-06 04:36 13.51677 123.66110 8052 ft 279 kts 99°
2026-05-06 04:36 13.51349 123.68063 7698 ft 276 kts 99°
2026-05-06 04:36 13.51028 123.69980 7352 ft 274 kts 99°
2026-05-06 04:36 13.50704 123.71918 7001 ft 272 kts 99°
2026-05-06 04:37 13.50388 123.73802 6661 ft 270 kts 98°
2026-05-06 04:37 13.50070 123.75695 6320 ft 268 kts 98°
2026-05-06 04:37 13.49754 123.77573 5982 ft 266 kts 98°
2026-05-06 04:37 13.49440 123.79444 5644 ft 264 kts 98°
2026-05-06 04:38 13.49131 123.81284 5365 ft 259 kts 98°
2026-05-06 04:38 13.48833 123.83057 5271 ft 246 kts 98°
2026-05-06 04:38 13.48546 123.84757 5181 ft 234 kts 98°
2026-05-06 04:38 13.48277 123.86354 5091 ft 223 kts 98°
2026-05-06 04:39 13.48109 123.87907 5009 ft 212 kts 91°
2026-05-06 04:39 13.48130 123.89419 5017 ft 212 kts 86°
2026-05-06 04:39 13.48201 123.90910 5013 ft 212 kts 86°
2026-05-06 04:39 13.48276 123.92439 4784 ft 214 kts 86°
2026-05-06 04:40 13.48350 123.93948 4527 ft 212 kts 86°
2026-05-06 04:40 13.48423 123.95467 4257 ft 211 kts 86°
2026-05-06 04:40 13.48494 123.96958 3992 ft 210 kts 86°
2026-05-06 04:40 13.48565 123.98457 3729 ft 208 kts 86°
2026-05-06 04:41 13.48634 123.99921 3475 ft 207 kts 86°
2026-05-06 04:41 13.48704 124.01409 3225 ft 205 kts 86°
2026-05-06 04:41 13.48771 124.02851 3193 ft 205 kts 86°
2026-05-06 04:41 13.48840 124.04324 3128 ft 206 kts 86°
2026-05-06 04:42 13.48951 124.05770 3003 ft 201 kts 76°
2026-05-06 04:42 13.49579 124.07003 2908 ft 191 kts 55°
2026-05-06 04:42 13.50346 124.08099 2767 ft 181 kts 56°
2026-05-06 04:42 13.51045 124.09128 2546 ft 170 kts 56°
2026-05-06 04:43 13.51694 124.10092 2336 ft 155 kts 57°
2026-05-06 04:43 13.52277 124.10962 2107 ft 142 kts 57°
2026-05-06 04:43 13.52811 124.11762 1883 ft 131 kts 57°
2026-05-06 04:43 13.53311 124.12548 1689 ft 129 kts 60°
2026-05-06 04:44 13.53747 124.13347 1637 ft 129 kts 62°
2026-05-06 04:44 13.54172 124.14156 1480 ft 129 kts 61°
2026-05-06 04:44 13.54611 124.14967 1313 ft 128 kts 60°
2026-05-06 04:44 13.55070 124.15756 1147 ft 128 kts 59°
2026-05-06 04:45 13.55521 124.16542 978 ft 128 kts 59°
2026-05-06 04:45 13.55960 124.17340 768 ft 127 kts 61°
2026-05-06 04:45 13.56388 124.18132 607 ft 127 kts 59°
2026-05-06 04:45 13.56830 124.18915 391 ft 127 kts 61°
2026-05-06 04:46 13.57262 124.19693 206 ft 123 kts 60°
2026-05-06 04:46 13.57655 124.20418 141 ft 97 kts 58°
2026-05-06 04:46 13.57848 124.20761 130 ft 27 kts 60°
2026-05-06 04:46 13.57928 124.20906 125 ft 16 kts 60°
2026-05-06 04:47 13.57973 124.20987 123 ft 10 kts 60°
2026-05-06 04:47 13.58001 124.21036 121 ft 8 kts 61°
2026-05-06 04:47 13.57982 124.21101 119 ft 11 kts 129°
2026-05-06 04:47 13.57975 124.21146 117 ft 5 kts 67°
2026-05-06 04:48 13.57984 124.21165 117 ft 3 kts 62°
2026-05-06 04:48 13.57980 124.21182 116 ft 2 kts 129°
2026-05-06 04:48 13.57966 124.21189 117 ft 0 kts 165°
2026-05-06 04:48 13.57961 124.21190 117 ft 1 kts 170°
2026-05-06 04:49 13.57955 124.21191 117 ft 0 kts 175°